• In Czech Republic
  • List of Countries
  • For 7 days
  • Water Temperature
  • Satellite Maps
  • Weather Map
  • Weather Widgets
  • user-avatar
    Login

    Hourly Weather Kilmarnock

    Today, 18 November, Saturday

    Time Temperature Precipitation Wind Pressure Humidity
    00:00 +5°C° 0.1 mm 8 mps 761 mmHg 77%
    01:00 +5°C° 0.1 mm 7 mps 761 mmHg 77%
    02:00 +5°C° 0.1 mm 7 mps 760 mmHg 77%
    03:00 +5°C° 0.1 mm 7 mps 760 mmHg 77%
    04:00 +5°C° 0.1 mm 7 mps 760 mmHg 77%
    05:00 +4°C° 0.1 mm 6 mps 760 mmHg 76%
    06:00 +4°C° 0.1 mm 6 mps 760 mmHg 76%
    07:00 +4°C° 0 mm 6 mps 761 mmHg 76%
    08:00 +3°C° 0 mm 5 mps 761 mmHg 76%
    09:00 +3°C° 0 mm 5 mps 762 mmHg 76%
    10:00 +5°C° 0 mm 5 mps 762 mmHg 73%
    11:00 +5°C° 0 mm 5 mps 762 mmHg 69%
    12:00 +6°C° 0 mm 5 mps 762 mmHg 66%
    13:00 +6°C° 0 mm 5 mps 762 mmHg 67%
    14:00 +5°C° 0 mm 5 mps 762 mmHg 68%
    15:00 +5°C° 0 mm 5 mps 762 mmHg 69%
    16:00 +4°C° 0 mm 4 mps 762 mmHg 71%
    17:00 +4°C° 0 mm 4 mps 762 mmHg 73%
    18:00 +3°C° 0 mm 4 mps 762 mmHg 75%
    19:00 +3°C° 0 mm 4 mps 763 mmHg 76%
    20:00 +2°C° 0 mm 3 mps 763 mmHg 77%
    21:00 +2°C° 0 mm 3 mps 763 mmHg 78%
    22:00 +2°C° 0 mm 3 mps 763 mmHg 78%
    23:00 +2°C° 0 mm 3 mps 763 mmHg 79%

    Tomorrow, 19 November, Sunday

    Time Temperature Precipitation Wind Pressure Humidity
    00:00 +2°C° 0 mm 3 mps 763 mmHg 80%
    01:00 +2°C° 0 mm 3 mps 763 mmHg 81%
    02:00 +3°C° 0 mm 2 mps 764 mmHg 83%
    03:00 +3°C° 0 mm 2 mps 764 mmHg 84%
    04:00 +4°C° 0 mm 1 mps 764 mmHg 85%
    05:00 +4°C° 0 mm 1 mps 764 mmHg 85%
    06:00 +4°C° 0 mm 1 mps 764 mmHg 86%
    07:00 +4°C° 0 mm 1 mps 764 mmHg 84%
    08:00 +5°C° 0 mm 1 mps 764 mmHg 83%
    09:00 +5°C° 0 mm 1 mps 764 mmHg 82%
    10:00 +6°C° 0 mm 1 mps 763 mmHg 80%
    11:00 +5°C° 0 mm 2 mps 763 mmHg 79%
    12:00 +5°C° 0 mm 3 mps 763 mmHg 77%
    13:00 +5°C° 0.1 mm 3 mps 762 mmHg 79%
    14:00 +5°C° 0.1 mm 3 mps 761 mmHg 81%
    15:00 +5°C° 0.1 mm 4 mps 761 mmHg 83%
    16:00 +5°C° 0.2 mm 4 mps 760 mmHg 86%
    17:00 +5°C° 0.2 mm 4 mps 759 mmHg 89%
    18:00 +5°C° 0.2 mm 4 mps 759 mmHg 92%
    19:00 +6°C° 1 mm 4 mps 758 mmHg 93%
    20:00 +6°C° 1 mm 4 mps 757 mmHg 94%
    21:00 +7°C° 1 mm 5 mps 756 mmHg 95%
    22:00 +7°C° 1.2 mm 5 mps 755 mmHg 95%
    23:00 +8°C° 1.2 mm 5 mps 754 mmHg 95%

    Day after tomorrow, 20 November, Monday

    Time Temperature Precipitation Wind Pressure Humidity
    00:00 +8°C° 1.2 mm 6 mps 753 mmHg 95%
    01:00 +9°C° 0.9 mm 6 mps 752 mmHg 94%
    02:00 +10°C° 0.9 mm 7 mps 751 mmHg 93%
    03:00 +11°C° 0.9 mm 7 mps 750 mmHg 93%
    04:00 +10°C° 0.6 mm 7 mps 750 mmHg 93%
    05:00 +10°C° 0.6 mm 7 mps 749 mmHg 92%
    06:00 +10°C° 0.6 mm 7 mps 749 mmHg 92%
    07:00 +10°C° 1.1 mm 7 mps 748 mmHg 92%
    08:00 +10°C° 1.1 mm 7 mps 748 mmHg 92%
    09:00 +10°C° 1.1 mm 7 mps 748 mmHg 91%
    10:00 +10°C° 0.8 mm 7 mps 748 mmHg 91%
    11:00 +10°C° 0.8 mm 6 mps 749 mmHg 92%
    12:00 +10°C° 0.8 mm 6 mps 749 mmHg 92%
    13:00 +10°C° 0.1 mm 6 mps 749 mmHg 92%
    14:00 +10°C° 0.1 mm 5 mps 750 mmHg 93%
    15:00 +11°C° 0.1 mm 4 mps 750 mmHg 94%
    16:00 +11°C° 0.1 mm 4 mps 751 mmHg 94%
    17:00 +10°C° 0.1 mm 4 mps 751 mmHg 95%
    18:00 +10°C° 0.1 mm 3 mps 752 mmHg 96%
    19:00 +10°C° 0.2 mm 3 mps 752 mmHg 96%
    20:00 +10°C° 0.2 mm 3 mps 752 mmHg 96%
    21:00 +10°C° 0.2 mm 2 mps 752 mmHg 96%
    22:00 +9°C° 0.1 mm 2 mps 752 mmHg 96%
    23:00 +9°C° 0.1 mm 2 mps 752 mmHg 96%

    21 November, Tuesday

    Time Temperature Precipitation Wind Pressure Humidity
    00:00 +9°C° 0.1 mm 2 mps 752 mmHg 96%
    01:00 +9°C° 0.6 mm 2 mps 752 mmHg 96%
    02:00 +9°C° 0.6 mm 3 mps 751 mmHg 97%
    03:00 +9°C° 0.6 mm 3 mps 750 mmHg 97%
    04:00 +9°C° 2.1 mm 2 mps 750 mmHg 97%
    05:00 +9°C° 2.1 mm 2 mps 749 mmHg 97%
    06:00 +9°C° 2.1 mm 2 mps 748 mmHg 97%
    07:00 +9°C° 1.3 mm 2 mps 748 mmHg 97%
    08:00 +9°C° 1.3 mm 2 mps 748 mmHg 96%
    09:00 +9°C° 1.3 mm 2 mps 748 mmHg 96%
    10:00 +9°C° 0.1 mm 2 mps 749 mmHg 95%
    11:00 +9°C° 0.1 mm 2 mps 749 mmHg 93%
    12:00 +9°C° 0.1 mm 2 mps 749 mmHg 91%
    13:00 +9°C° 0 mm 2 mps 749 mmHg 91%
    14:00 +9°C° 0 mm 2 mps 750 mmHg 91%
    15:00 +8°C° 0 mm 2 mps 750 mmHg 91%
    16:00 +8°C° 0.1 mm 2 mps 750 mmHg 91%
    17:00 +8°C° 0.1 mm 3 mps 750 mmHg 91%
    18:00 +6°C° 0.1 mm 4 mps 749 mmHg 91%
    19:00 +6°C° 1.6 mm 5 mps 749 mmHg 92%
    20:00 +6°C° 1.6 mm 5 mps 749 mmHg 92%
    21:00 +6°C° 1.6 mm 5 mps 748 mmHg 93%
    22:00 +6°C° 3.3 mm 5 mps 747 mmHg 93%
    23:00 +6°C° 3.3 mm 5 mps 746 mmHg 93%

    22 November, Wednesday

    Time Temperature Precipitation Wind Pressure Humidity
    00:00 +7°C° 3.3 mm 5 mps 746 mmHg 94%
    01:00 +8°C° 2.7 mm 6 mps 745 mmHg 94%
    02:00 +8°C° 2.7 mm 7 mps 744 mmHg 94%
    03:00 +9°C° 2.7 mm 8 mps 743 mmHg 94%
    04:00 +9°C° 2.2 mm 7 mps 742 mmHg 93%
    05:00 +9°C° 2.2 mm 7 mps 742 mmHg 93%
    06:00 +10°C° 2.2 mm 7 mps 741 mmHg 93%
    07:00 +10°C° 1.6 mm 7 mps 741 mmHg 93%
    08:00 +10°C° 1.6 mm 7 mps 741 mmHg 93%
    09:00 +9°C° 1.6 mm 7 mps 741 mmHg 93%
    10:00 +10°C° 0.9 mm 6 mps 741 mmHg 92%
    11:00 +10°C° 0.9 mm 6 mps 741 mmHg 92%
    12:00 +10°C° 0.9 mm 6 mps 741 mmHg 91%
    13:00 +11°C° 0.8 mm 6 mps 740 mmHg 91%
    14:00 +11°C° 0.8 mm 7 mps 739 mmHg 91%
    15:00 +11°C° 0.8 mm 8 mps 738 mmHg 91%
    16:00 +11°C° 0.3 mm 9 mps 737 mmHg 89%
    17:00 +11°C° 0.3 mm 9 mps 736 mmHg 88%
    18:00 +11°C° 0.3 mm 10 mps 735 mmHg 86%
    19:00 +11°C° 0.6 mm 10 mps 734 mmHg 85%
    20:00 +11°C° 0.6 mm 11 mps 734 mmHg 84%
    21:00 +11°C° 0.6 mm 11 mps 733 mmHg 83%
    22:00 +11°C° 0.8 mm 11 mps 732 mmHg 85%
    23:00 +11°C° 0.8 mm 10 mps 731 mmHg 87%

    23 November, Thursday

    Time Temperature Precipitation Wind Pressure Humidity
    00:00 +11°C° 0.8 mm 10 mps 731 mmHg 89%
    01:00 +11°C° 1.4 mm 9 mps 730 mmHg 90%
    02:00 +11°C° 1.4 mm 9 mps 729 mmHg 90%
    03:00 +11°C° 1.4 mm 8 mps 728 mmHg 91%
    04:00 +11°C° 0.7 mm 8 mps 728 mmHg 91%
    05:00 +11°C° 0.7 mm 7 mps 728 mmHg 91%
    06:00 +11°C° 0.7 mm 7 mps 727 mmHg 91%
    07:00 +10°C° 0.3 mm 7 mps 728 mmHg 90%
    08:00 +10°C° 0.3 mm 8 mps 729 mmHg 89%
    09:00 +10°C° 0.3 mm 8 mps 730 mmHg 88%
    10:00 +10°C° 0.1 mm 8 mps 731 mmHg 87%
    11:00 +9°C° 0.1 mm 8 mps 732 mmHg 86%
    12:00 +8°C° 0.1 mm 9 mps 733 mmHg 85%
    13:00 +9°C° 0 mm 8 mps 734 mmHg 85%
    14:00 +9°C° 0 mm 7 mps 736 mmHg 85%
    15:00 +9°C° 0 mm 7 mps 737 mmHg 85%
    16:00 +8°C° 0 mm 5 mps 738 mmHg 86%
    17:00 +8°C° 0 mm 4 mps 739 mmHg 87%
    18:00 +8°C° 0 mm 3 mps 740 mmHg 88%
    19:00 +8°C° 0 mm 2 mps 740 mmHg 88%
    20:00 +8°C° 0 mm 2 mps 740 mmHg 88%
    21:00 +9°C° 0 mm 1 mps 741 mmHg 88%
    22:00 +8°C° 0.2 mm 2 mps 741 mmHg 89%
    23:00 +8°C° 0.2 mm 3 mps 741 mmHg 90%
    Show more